Satellite-Ground Cal/Val Region Overpasses Predictions

Prediction of Satellite NPP Overpassing Cal/Val Region: PacNW

Region Location: (Latitude: 10.00, Longitude: 139.50) to (Latitude: 22.70, Longitude: 165.60).

Table of predicted overpasses for the next 14.0 days since TLE Epoch: 4/8/2016
Interval Starting Time Starting Location Ending Time Ending Location
1 04/08/2016 15:18:28 ( 22.65, 155.59) 04/08/2016 15:22:03 ( 10.03, 152.59)
2 04/09/2016 02:27:33 ( 10.03, 163.12) 04/09/2016 02:31:08 ( 22.65, 160.12)
3 04/09/2016 14:59:27 ( 22.65, 160.34) 04/09/2016 15:03:02 ( 10.03, 157.34)
4 04/10/2016 02:11:17 ( 19.78, 165.59) 04/10/2016 02:12:06 ( 22.66, 164.88)
5 04/10/2016 03:50:01 ( 10.04, 142.50) 04/10/2016 03:53:36 ( 22.66, 139.50)
6 04/10/2016 14:40:25 ( 22.65, 165.10) 04/10/2016 14:44:00 ( 10.03, 162.10)
7 04/10/2016 16:21:55 ( 22.64, 139.72) 04/10/2016 16:22:10 ( 21.76, 139.50)
8 04/11/2016 03:31:00 ( 10.04, 147.26) 04/11/2016 03:34:35 ( 22.66, 144.26)
9 04/11/2016 16:02:53 ( 22.70, 144.49) 04/11/2016 16:06:29 ( 10.02, 141.48)
10 04/12/2016 03:11:59 ( 10.04, 152.01) 04/12/2016 03:15:34 ( 22.67, 149.01)
11 04/12/2016 15:43:51 ( 22.69, 149.24) 04/12/2016 15:47:27 ( 10.02, 146.23)
12 04/13/2016 02:52:57 ( 10.05, 156.76) 04/13/2016 02:56:32 ( 22.67, 153.77)
13 04/13/2016 15:24:50 ( 22.69, 154.00) 04/13/2016 15:28:26 ( 10.01, 150.99)
14 04/14/2016 02:33:56 ( 10.05, 161.52) 04/14/2016 02:37:31 ( 22.68, 158.52)
15 04/14/2016 15:05:48 ( 22.69, 158.75) 04/14/2016 15:09:24 ( 10.01, 155.74)
16 04/15/2016 02:15:44 ( 13.00, 165.60) 04/15/2016 02:18:29 ( 22.68, 163.27)
17 04/15/2016 03:56:23 ( 10.00, 140.91) 04/15/2016 03:58:06 ( 16.06, 139.51)
18 04/15/2016 14:46:47 ( 22.68, 163.51) 04/15/2016 14:50:23 ( 10.01, 160.49)
19 04/16/2016 03:37:22 ( 10.01, 145.66) 04/16/2016 03:40:58 ( 22.69, 142.65)
20 04/16/2016 14:30:55 ( 11.53, 165.60) 04/16/2016 14:31:21 ( 10.00, 165.25)
21 04/16/2016 16:09:15 ( 22.67, 142.88) 04/16/2016 16:12:50 ( 10.06, 139.89)
22 04/17/2016 03:18:20 ( 10.01, 150.42) 04/17/2016 03:21:56 ( 22.70, 147.40)
23
